星链-5433 (STARLINK-5433 )

导读 | 豆包AI

STARLINK-5433是美国太空探索技术公司Starlink星链互联网星座中的一颗卫星,于2022年12月17日发射升空,属于星链星座第二批组网卫星。星链项目旨在构建全球覆盖的低轨卫星互联网,该卫星入轨后为全球偏远地区、海上用户等提供低延迟宽带互联网接入服务,目前在既定近地轨道完成既定组网运行任务。

基本信息
目录编号:
54793
目录名称:
STARLINK-5433
国际标识:
2022-175AM
轨道中心:
EARTH
卫星名称:
星链-5433
卫星全名:
星链-5433 (STARLINK-5433 )
卫星状态:
在轨 (已飞行1184 天)
发射日期:
2022-12-17 UTC
国别 :
美国 (US)
星等 :
--
轨道信息
数据来源 国际轨道数据
星历时间: 2026-03-15T06:42:00+0800
12小时前
查看轨道信息
半长轴: 6917.922km
偏心率: 0.0001191
轨道倾角: 53.218°
近地点辐角 77.794°
升交点赤经 355.538°
平近点角 282.319°
近地点: 538.961km
远地点: 540.609km
周期: 95.438分钟
每日圈数: 15.088264
详细信息
固有亮度:
5
最大亮度:
2.5
卫星平台:
Starlink v1.5
覆盖范围:
全球
运营商:
太空探索技术公司
运营商所在国:
美国
制造商(研发单位):
太空探索技术公司
制造商所在国:
美国
使用方式:
暂无
卫星简介
星链(Starlink)计划是由太空探索技术公司(SpaceX)提出的一个巨型低轨卫星互联网星座项目,计划在2019年至2024年间在太空搭建由约1.2万颗卫星组成的“星链”网络,其中1584颗将部署在地球上空550千米处的近地轨道,并从2020年开始工作。该卫星仍在工作。
2D轨道图
3D轨道图
轨道高度分析图
轨道倾角分析图
轨道综合分析图
查看轨道综合分析图